Temp
8 8 9 10 10 11 10 10 11 11 13 13 13 14 15 15 14 16 15 15 15 15
5 6 6 7 7 7 8 8 9 10 10 11 11 12 13 13 13 14 13 13 14 14
3 3 4 4 4 5 5 6 7 8 7 9 10 10 10 11 12 11 10 11 10 9
4 3 3 3 3 3 3 4 4 4 5 6 6 6 8 7 8 8 7 7 7 6
4 4 4 3 3 3 3 2 2 3 3 4 4 3 5 5 4 5 5 5 5 4
3 3 2 3 3 3 3 3 2 2 2 2 3 3 3 3 3 3 3 3 3 3
3 2 2 2 2 3 3 2 2 2 1 1 2 2 2 2 2 2 2 2 2 2
2 2 2 2 1 1 1 1 1 1 1 0 0 1 1 1 1 1 1 1 1 1
2 2 1 1 1 1 1 0 0 -1 -0 -0 -0 0 1 0 1 1 1 1 1 -0
2 2 1 1 1 0 0 0 -0 -0 -0 -1 -0 0 -0 -0 0 1 1 1 1 1
2 2 1 1 1 0 -0 -0 -0 -0 -0 -1 -1 -0 -0 0 1 0 0 1 1 1
1 1 0 0 -0 -0 -0 -0 -0 -0 -0 -0 -0 -0 -0 -0 -0 -0 -0 -0 -0 -0
1 1 0 -0 -1 -1 -1 -0 -0 -0 -0 -0 -0 -0 -0 -0 -0 -0 -1 -1 -1 -1
1 0 -0 -1 -1 -1 -1 -0 -0 -0 -0 -1 -1 -0 -0 -1 -1 -1 -1 -2 -1 -1
Height
744 743 741 740 738 736 736 734 734 733 730 728 726 724 723 724 725 725 726 724 724 722
749 746 744 741 739 738 735 733 732 731 728 725 723 719 718 717 719 720 722 720 719 717
754 752 749 746 743 741 738 735 732 730 727 724 720 719 717 714 715 719 720 723 722 716
755 754 753 750 748 745 742 738 735 732 729 725 721 721 718 718 716 718 722 722 726 725
758 756 754 753 751 749 746 743 740 739 733 730 725 724 720 722 720 724 723 725 725 726
761 759 756 754 752 751 750 748 746 743 741 738 734 730 728 726 727 728 728 728 730 729
763 761 759 758 755 751 749 749 747 745 744 742 739 736 735 736 734 732 735 734 735 732
765 763 761 758 757 755 752 750 748 746 745 743 741 738 737 736 736 736 735 735 737 736
765 764 763 761 758 756 754 752 751 748 746 744 743 742 742 741 740 740 740 739 739 740
763 764 762 760 760 758 756 754 752 750 749 748 746 745 744 744 743 743 742 742 741 742
765 763 763 760 758 758 757 755 754 752 751 749 748 747 747 746 744 745 745 744 744 744
765 765 765 763 759 757 757 756 755 753 752 751 750 750 748 747 747 746 746 746 745 745
764 763 762 762 762 760 757 757 756 754 753 752 751 751 751 749 749 748 747 746 745 744
763 763 763 761 760 760 760 759 757 755 754 754 753 752 751 750 749 748 746 745 744 743
Wind_Speed
17 15 10 9 8 7 9 10 14 18 19 21 22 25 25 28 31 30 27 30 29 27
21 18 17 13 11 10 11 11 11 13 13 12 12 13 12 13 11 9 6 8 16 12
21 21 19 16 16 14 12 11 9 7 6 6 4 4 4 6 4 4 8 7 8 14
22 21 21 23 19 18 17 14 13 13 12 13 14 11 13 13 15 16 16 15 15 16
18 18 20 21 22 21 20 19 20 17 19 19 19 19 18 16 19 17 17 15 16 16
15 15 15 15 16 16 17 17 17 18 20 19 18 19 20 19 19 17 17 17 15 16
11 10 9 10 10 10 11 12 12 13 14 16 16 16 15 14 14 14 13 13 15 16
8 8 7 8 9 8 9 11 10 11 12 13 16 17 12 12 12 14 15 15 15 15
5 6 7 8 9 10 10 10 11 12 14 16 15 12 13 14 16 16 15 12 12 12
2 3 4 6 7 7 7 7 7 7 11 14 14 12 11 11 12 12 11 8 10 9
2 1 1 3 5 6 5 5 5 6 7 10 12 12 12 13 13 13 15 13 7 7
2 2 4 4 4 4 5 4 4 4 6 8 11 11 12 12 12 12 13 11 11 10
2 2 2 4 5 4 3 2 2 1 3 5 7 8 8 9 10 9 10 9 9 10
2 2 3 3 2 3 4 3 3 5 6 4 5 6 7 8 10 9 9 10 11 11
Wind_Direction
17 16 8 353 342 323 312 316 315 312 305 297 289 279 271 263 261 260 253 251 231 222
23 23 21 16 12 1 350 345 330 321 308 307 313 298 276 246 243 250 274 269 248 228
34 30 28 25 25 18 12 4 357 346 9 29 25 50 92 125 166 142 79 92 84 91
50 46 42 40 34 35 34 33 41 40 49 65 71 66 85 78 88 98 85 88 88 73
53 50 46 42 42 39 41 42 42 43 50 59 62 61 75 74 74 75 81 73 69 70
41 42 45 48 45 40 42 43 46 49 46 48 60 65 63 63 72 70 68 64 72 71
30 27 29 23 28 38 31 29 31 36 43 40 45 56 65 65 67 73 73 75 75 72
28 28 30 26 23 17 31 40 46 44 44 45 38 38 47 62 66 74 74 75 69 67
33 33 28 22 24 29 34 35 37 49 57 57 47 52 54 66 67 68 71 81 75 71
64 29 41 38 26 21 21 31 47 64 56 55 50 48 54 64 78 69 62 74 75 79
11 80 16 17 18 6 7 21 35 51 63 62 50 55 63 71 70 66 66 71 71 70
348 343 339 347 16 19 10 21 44 64 78 71 61 56 57 57 59 59 54 59 60 44
284 300 334 343 347 6 12 2 349 57 100 78 76 60 52 45 45 49 39 40 30 25
313 313 336 342 3 357 357 9 68 108 121 114 91 79 52 41 39 41 27 15 3 4